Regional Weather Roundup
Issued by NWS Cleveland, OH

Home | Current Version | Previous Version | Graphics & Text | Print | Product List | Glossary On
Versions: 1 2 3 4 5 6 7 8 9 10 11 12 13 14 15 16 17 18 19 20 21 22 23 24 25 26 27 28 29 30 31 32 33 34 35 36 37 38 39 40 41 42 43 44 45 46 47 48 49 50
000
ASUS41 KCLE 231510
RWRCLE
OHIO REGIONAL WEATHER ROUNDUP
NATIONAL WEATHER SERVICE CLEVELAND, OH
1100 AM EDT SUN JUL 23 2017

NOTE: "FAIR" INDICATES FEW OR NO CLOUDS BELOW 12,000 FEET WITH NO
SIGNIFICANT WEATHER AND/OR OBSTRUCTIONS TO VISIBILITY.

OHZ001>008-015>018-024>027-034-035-043-044-231600-
   NORTHWEST OHIO

CITY           SKY/WX    TMP DP  RH WIND       PRES   REMARKS
DEFIANCE       CLOUDY   N/A N/A N/A SW6       29.81F
FINDLAY        CLOUDY    78  70  76 S8        29.80F
TOLEDO EXPRESS CLOUDY    77  70  79 W6        29.80F
TOLEDO EXEC    CLOUDY    76  69  79 SW5       29.80F
LIMA           CLOUDY    77  71  82 SW8       29.82F
$$

OHZ009>014-019>023-028>033-038-089-231600-
   NORTHEAST OHIO

CITY           SKY/WX    TMP DP  RH WIND       PRES   REMARKS
CLE-HOPKINS    CLOUDY    81  72  74 W9        29.81S
CLE-LAKEFRONT  CLOUDY    78  71  79 W10       29.78S
CUY CO. ARPT   PTSUNNY   79  68  69 NW9       29.80S
LORAIN-ELYRIA  PTSUNNY   78  67  68 W6        29.81S
ASHTABULA      CLOUDY    77  72  84 S9        29.80S
AKRON-CANTON   PTSUNNY   79  69  71 SW6       29.82S
WOOSTER        MOSUNNY   76  69  79 W9        29.83S
MANSFIELD      CLOUDY    77  69  76 W6        29.84S
YOUNGSTOWN     PTSUNNY   77  71  82 SW8       29.81S
$$

OHZ042-051>053-060>062-070>072-077>081-231600-
  SOUTHWEST OHIO

CITY           SKY/WX    TMP DP  RH WIND       PRES   REMARKS
CINC-COVINGTON LGT RAIN  71  70  96 W13       29.90R
CINC-LUNKEN    CLOUDY    74  69  85 W18G30    29.88R
HAMILTON       LGT RAIN  73  71  93 W10       29.88F
DAYTON         RAIN      72  70  93 W16G24    29.88R
WRIGHT-PAT AFB LGT RAIN  73  72  94 SW13      29.85S
DAYTON GENERAL LGT RAIN  73  69  87 W12G21    29.86F
WILMINGTON     CLOUDY    75  70  84 W17G28    29.85F
$$

OHZ036-037-039>041-045>050-054>059-063>069-073>076-082>088-231600-
  CENTRAL AND SOUTHEAST OHIO

CITY           SKY/WX    TMP DP  RH WIND       PRES   REMARKS
COLUMBUS       LGT RAIN  73  72  96 SW3       29.84S
OSU AIRPORT    CLOUDY    74  74 100 SW6       29.85R
BOLTON FIELD   CLOUDY    75  72  88 W6        29.84F
RICKENBACK AFB CLOUDY    75  74  96 SE3       29.83S
NEWARK         TSTM      71  69  93 W6        29.84S FOG
MARION         CLOUDY    77  69  76 W5        29.83F
LANCASTER      CLOUDY    73  73 100 CALM      29.86R
ZANESVILLE     HVY RAIN  73  70  90 SW9       29.85R VSB 3/4
NEW PHILLY     NOT AVBL
$$




USA.gov is the U.S. government's official web portal to all federal, state and local government web resources and services.